St. Paul Lake Elmo, MN

9:12 AM CDT on May 27, 2018 (GMT -0500)
St. Paul Lake Elmo

Weather History for K21D - July, 2013

Change the Weather History Date:

Thursday, July 11, 2013

  Actual Average (KSTP) Record (KSTP)
Temperature  
Mean Temperature 70 °F -  
Max Temperature 82 °F 80 °F 91 °F (2008)
Min Temperature 57 °F 61 °F 57 °F (1999)
Cooling Degree Days 4    
Growing Degree Days 20 (Base 50)    
Moisture  
Dew Point 60 °F    
Average Humidity 72    
Maximum Humidity 100    
Minimum Humidity 45    
Precipitation  
Precipitation 0.00 in - - ()
Sea Level Pressure  
Sea Level Pressure 30.08 in    
Wind  
Wind Speed 2 mph (SSE)    
Max Wind Speed 12 mph    
Max Gust Speed 16 mph    
Visibility 8 miles    
Events      
Averages and records for this station are not official NWS values.
T = Trace of Precipitation, MM = Missing Value Source: NWS Daily Summary

Daily Weather History Graph

Daily Weather History Graph

Search for Another Location

Airport or City:

Astronomy

Jul. 11, 2013 Rise Set
Actual Time 5:35 AM CDT 8:57 PM CDT
Civil Twilight 4:59 AM CDT 9:33 PM CDT
Nautical Twilight 4:11 AM CDT 10:21 PM CDT
Astronomical Twilight 3:11 AM CDT 11:20 PM CDT
Moon 9:05 AM CDT (7/11) 10:26 PM CDT (7/11)
Length of Visible Light 16h 34m
Length of Day
15h 21m
Waxing Crescent, 11% of the Moon is Illuminated
Jul 11
Waxing Crescent
Jul 15
First Quarter
Jul 22
Full
Jul 29
Last Quarter
Aug 6
New

Hourly Weather History & Observations

Time (CDT) Temp. Heat Index Dew Point Humidity Pressure Visibility Wind Dir Wind Speed Gust Speed Precip Events Conditions
12:05 AM 62.6 °F - 62.6 °F 100% 30.06 in 7.0 mi Calm Calm - N/A   Clear
12:25 AM 62.6 °F - 62.6 °F 100% 30.07 in 7.0 mi Calm Calm - N/A   Clear
12:45 AM 62.6 °F - 62.6 °F 100% 30.07 in 7.0 mi Calm Calm - N/A   Clear
1:05 AM 62.6 °F - 60.8 °F 94% 30.07 in 7.0 mi Calm Calm - N/A   Clear
1:25 AM 60.8 °F - 60.8 °F 100% 30.08 in 7.0 mi Calm Calm - N/A   Clear
1:45 AM 60.8 °F - 60.8 °F 100% 30.08 in 10.0 mi Calm Calm - N/A   Clear
2:05 AM 60.8 °F - 60.8 °F 100% 30.09 in 10.0 mi Calm Calm - N/A   Clear
2:25 AM 60.8 °F - 60.8 °F 100% 30.08 in 7.0 mi Calm Calm - N/A   Clear
2:45 AM 59.0 °F - 59.0 °F 100% 30.09 in 7.0 mi Calm Calm - N/A   Clear
3:05 AM 60.8 °F - 59.0 °F 94% 30.09 in 7.0 mi Calm Calm - N/A   Clear
3:25 AM 60.8 °F - 59.0 °F 94% 30.09 in 5.0 mi Calm Calm - N/A   Clear
3:45 AM 59.0 °F - 59.0 °F 100% 30.09 in 4.0 mi Calm Calm - N/A   Clear
4:05 AM 59.0 °F - 59.0 °F 100% 30.09 in 3.0 mi Calm Calm - N/A   Clear
4:25 AM 59.0 °F - 57.2 °F 94% 30.09 in 3.0 mi Calm Calm - N/A   Clear
4:45 AM 59.0 °F - 59.0 °F 100% 30.11 in 3.0 mi Calm Calm - N/A   Clear
5:05 AM 59.0 °F - 59.0 °F 100% 30.11 in 4.0 mi Calm Calm - N/A   Clear
5:25 AM 57.2 °F - 57.2 °F 100% 30.11 in 0.5 mi Calm Calm - N/A   Unknown
5:45 AM 57.2 °F - 57.2 °F 100% 30.12 in 1.8 mi Calm Calm - N/A   Unknown
6:05 AM 57.2 °F - 57.2 °F 100% 30.12 in 0.2 mi Calm Calm - N/A   Mostly Cloudy
6:25 AM 57.2 °F - 57.2 °F 100% 30.12 in 4.0 mi Calm Calm - N/A   Scattered Clouds
6:45 AM 59.0 °F - 59.0 °F 100% 30.12 in 4.0 mi Calm Calm - N/A   Clear
7:05 AM 60.8 °F - 60.8 °F 100% 30.13 in 5.0 mi Calm Calm - N/A   Clear
7:25 AM 62.6 °F - 62.6 °F 100% 30.13 in 7.0 mi Calm Calm - N/A   Clear
7:45 AM 64.4 °F - 62.6 °F 94% 30.13 in 7.0 mi Calm Calm - N/A   Clear
8:05 AM 66.2 °F - 64.4 °F 94% 30.13 in 7.0 mi Calm Calm - N/A   Clear
8:25 AM 68.0 °F - 64.4 °F 88% 30.13 in 10.0 mi Calm Calm - N/A   Clear
8:45 AM 69.8 °F - 64.4 °F 83% 30.13 in 10.0 mi Calm Calm - N/A   Clear
9:05 AM 71.6 °F - 62.6 °F 73% 30.12 in 10.0 mi Calm Calm - N/A   Clear
9:25 AM 73.4 °F - 62.6 °F 69% 30.12 in 10.0 mi Calm Calm - N/A   Clear
9:45 AM 73.4 °F - 62.6 °F 69% 30.12 in 10.0 mi Calm Calm - N/A   Clear
10:05 AM 75.2 °F - 60.8 °F 61% 30.12 in 10.0 mi SSE 3.5 mph - N/A   Clear
10:25 AM 75.2 °F - 60.8 °F 61% 30.12 in 10.0 mi SE 4.6 mph - N/A   Clear
10:45 AM 77.0 °F - 60.8 °F 57% 30.12 in 10.0 mi Calm Calm - N/A   Clear
11:05 AM 77.0 °F - 60.8 °F 57% 30.12 in 10.0 mi South 5.8 mph - N/A   Clear
11:25 AM 77.0 °F - 60.8 °F 57% 30.12 in 10.0 mi SSE 4.6 mph - N/A   Scattered Clouds
11:45 AM 78.8 °F - 59.0 °F 51% 30.11 in 10.0 mi ESE 5.8 mph - N/A   Scattered Clouds
12:05 PM 78.8 °F - 59.0 °F 51% 30.11 in 10.0 mi South 8.1 mph - N/A   Clear
12:25 PM 78.8 °F - 57.2 °F 47% 30.10 in 10.0 mi SSE 6.9 mph - N/A   Scattered Clouds
12:45 PM 78.8 °F - 57.2 °F 47% 30.10 in 10.0 mi SSE 6.9 mph - N/A   Clear
1:05 PM 80.6 °F 80.8 °F 57.2 °F 45% 30.10 in 10.0 mi South 6.9 mph - N/A   Clear
1:25 PM 80.6 °F 81.5 °F 60.8 °F 51% 30.09 in 10.0 mi South 6.9 mph - N/A   Clear
1:45 PM 80.6 °F 81.5 °F 60.8 °F 51% 30.08 in 10.0 mi South 9.2 mph - N/A   Clear
2:05 PM 80.6 °F 81.1 °F 59.0 °F 48% 30.08 in 10.0 mi South 9.2 mph - N/A   Clear
2:25 PM 80.6 °F 81.5 °F 60.8 °F 51% 30.08 in 10.0 mi South 6.9 mph - N/A   Clear
2:45 PM 80.6 °F 81.5 °F 60.8 °F 51% 30.08 in 10.0 mi South 9.2 mph - N/A   Scattered Clouds
3:05 PM 82.4 °F 82.9 °F 60.8 °F 48% 30.07 in 10.0 mi South 6.9 mph - N/A   Clear
3:25 PM 82.4 °F 82.9 °F 60.8 °F 48% 30.07 in 10.0 mi South 11.5 mph - N/A   Clear
3:45 PM 82.4 °F 82.5 °F 59.0 °F 45% 30.07 in 10.0 mi South 9.2 mph - N/A   Clear
4:05 PM 82.4 °F 82.5 °F 59.0 °F 45% 30.06 in 10.0 mi South 10.4 mph - N/A   Clear
4:25 PM 82.4 °F 82.5 °F 59.0 °F 45% 30.06 in 10.0 mi South 4.6 mph - N/A   Clear
4:45 PM 82.4 °F 82.9 °F 60.8 °F 48% 30.05 in 10.0 mi South 10.4 mph - N/A   Clear
5:05 PM 82.4 °F 82.5 °F 59.0 °F 45% 30.05 in 10.0 mi South 9.2 mph 16.1 mph N/A   Clear
5:25 PM 82.4 °F 82.5 °F 59.0 °F 45% 30.04 in 10.0 mi South 11.5 mph - N/A   Clear
5:45 PM 82.4 °F 82.5 °F 59.0 °F 45% 30.04 in 10.0 mi South 11.5 mph - N/A   Clear
6:05 PM 82.4 °F 82.5 °F 59.0 °F 45% 30.04 in 10.0 mi South 8.1 mph - N/A   Clear
6:25 PM 82.4 °F 82.5 °F 59.0 °F 45% 30.03 in 10.0 mi South 8.1 mph - N/A   Clear
6:45 PM 80.6 °F 80.8 °F 57.2 °F 45% 30.03 in 10.0 mi South 9.2 mph - N/A   Clear
7:05 PM 80.6 °F 81.5 °F 60.8 °F 51% 30.02 in 10.0 mi SSE 8.1 mph - N/A   Clear
7:25 PM 80.6 °F 81.5 °F 60.8 °F 51% 30.02 in 10.0 mi SSE 5.8 mph - N/A   Clear
7:45 PM 78.8 °F - 62.6 °F 57% 30.02 in 10.0 mi SSE 4.6 mph - N/A   Clear
8:05 PM 77.0 °F - 60.8 °F 57% 30.01 in 10.0 mi SSE 5.8 mph - N/A   Clear
8:25 PM 77.0 °F - 60.8 °F 57% 30.01 in 10.0 mi SSE 4.6 mph - N/A   Clear
8:45 PM 75.2 °F - 60.8 °F 61% 30.01 in 10.0 mi SE 3.5 mph - N/A   Clear
9:05 PM 73.4 °F - 60.8 °F 65% 30.01 in 10.0 mi SSE 4.6 mph - N/A   Clear
9:25 PM 73.4 °F - 60.8 °F 65% 30.02 in 10.0 mi SSE 4.6 mph - N/A   Clear
9:45 PM 73.4 °F - 60.8 °F 65% 30.02 in 10.0 mi SSE 5.8 mph - N/A   Clear
10:05 PM 71.6 °F - 60.8 °F 69% 30.02 in 10.0 mi SSE 5.8 mph - N/A   Clear
10:25 PM 69.8 °F - 60.8 °F 73% 30.03 in 10.0 mi SSE 4.6 mph - N/A   Clear
10:45 PM 69.8 °F - 60.8 °F 73% 30.03 in 10.0 mi SSE 4.6 mph - N/A   Clear
11:05 PM 69.8 °F - 60.8 °F 73% 30.02 in 10.0 mi SSE 6.9 mph - N/A   Clear
11:25 PM 69.8 °F - 60.8 °F 73% 30.02 in 10.0 mi South 5.8 mph - N/A   Clear
11:45 PM 68.0 °F - 60.8 °F 78% 30.03 in 10.0 mi South 5.8 mph - N/A   Clear